Regional Weather Roundup
Issued by NWS

Home | Current Version | Previous Version | Text Only | Print | Product List | Glossary On
Versions: 1 2 3 4 5 6 7 8 9 10 11 12 13 14 15 16 17 18 19 20 21 22 23 24 25 26 27 28 29 30 31 32 33 34 35 36 37 38 39 40 41 42 43 44 45 46 47 48 49 50
000
ASUS43 KFSD 202210
RWRSD

WEATHER ROUNDUP FOR SOUTH DAKOTA
NATIONAL WEATHER SERVICE SIOUX FALLS SD
500 PM CDT SUN APR 20 2014

NOTE: "FAIR" INDICATES FEW OR NO CLOUDS BELOW 12,000 FEET WITH NO
SIGNIFICANT WEATHER AND/OR OBSTRUCTIONS TO VISIBILITY.


SDZ001>005-009-010-012>017-202300-
NORTHWEST AND NORTH CENTRAL SOUTH DAKOTA

CITY           SKY/WX    TMP DP  RH WIND       PRES   REMARKS
BUFFALO          N/A     68  26  20 NW24G32   29.92S
FAITH            N/A     72  39  30 NW26G33   29.90S
MOBRIDGE       CLOUDY    76  33  21 S12       29.85F
$$

SDZ012>016-024>037-041>051-057-063-072>074-202300-
SOUTHWEST AND SOUTH CENTRAL SOUTH DAKOTA

CITY           SKY/WX    TMP DP  RH WIND       PRES   REMARKS
RAPID CTY ARPT PTSUNNY   68  30  24 N32G45    29.96R
PIERRE         SUNNY     81  42  25 S12       29.82F
CUSTER         CLOUDY    62  36  37 NE9       30.03R
ELLSWORTH AFB  CLOUDY    66  31  26 NW31G39   29.96R
PHILIP           N/A     81  37  20 NW14      29.85S
PINE RIDGE     SUNNY     78  30  17 NW16      29.91S
SPEARFISH      FAIR      63  32  31 NW12G20   30.05F
WINNER         FAIR      83  40  21 SW16G22   29.85F
$$

SDZ004>011-016>023-039-040-202300-
NORTHEAST SOUTH DAKOTA

CITY           SKY/WX    TMP DP  RH WIND       PRES   REMARKS
ABERDEEN       SUNNY     77  27  15 S14       29.88F
WATERTOWN      SUNNY     74  32  21 S15G21    29.92F
SISSETON         N/A     75  31  19 S10G18    29.91F
$$

SDZ017-020-022-023-036>040-048>070-202300-
SOUTHEAST SOUTH DAKOTA

CITY           SKY/WX    TMP DP  RH WIND       PRES   REMARKS
SIOUX FALLS    MOSUNNY   79  46  31 SE9       29.88F
HURON          SUNNY     80  35  19 S10       29.86F
CHAMBERLAIN      N/A     81  39  22 S14       29.86F
MITCHELL       SUNNY     82  42  24 S7        29.85F
YANKTON        MOSUNNY   79  52  38 N5        29.88F
$$

ABBREVIATIONS USED IN REMARKS
   TC - TEMPERATURE IN CELSIUS
  WCI - WIND CHILL INDEX
   HX - HEAT INDEX
  VSB - VISIBILITY




USA.gov is the U.S. government's official web portal to all federal, state and local government web resources and services.